TimeCDT,TemperatureF,Dew PointF,Humidity,Sea Level PressureIn,VisibilityMPH,Wind Direction,Wind SpeedMPH,Gust SpeedMPH,PrecipitationIn,Events,Conditions,WindDirDegrees,DateUTC
12:53 AM,50.0,48.0,93,30.01,10.0,Calm,Calm,-,N/A,,Clear,0,2012-10-21 05:53:00
1:53 AM,48.9,46.9,93,30.02,10.0,Calm,Calm,-,N/A,,Clear,0,2012-10-21 06:53:00
2:53 AM,48.0,46.9,96,30.02,8.0,Calm,Calm,-,N/A,,Clear,0,2012-10-21 07:53:00
3:53 AM,48.0,46.9,96,30.03,8.0,Calm,Calm,-,N/A,,Clear,0,2012-10-21 08:53:00
4:53 AM,48.0,46.0,93,30.04,9.0,Calm,Calm,-,N/A,,Clear,0,2012-10-21 09:53:00
5:22 AM,48.2,46.4,93,30.05,2.5,Calm,Calm,-,N/A,,Clear,0,2012-10-21 10:22:00
5:30 AM,48.2,46.4,93,30.05,10.0,Calm,Calm,-,N/A,,Clear,0,2012-10-21 10:30:00
5:53 AM,46.9,46.0,97,30.06,9.0,Calm,Calm,-,N/A,,Clear,0,2012-10-21 10:53:00
6:53 AM,46.9,46.0,97,30.08,9.0,Calm,Calm,-,N/A,,Clear,0,2012-10-21 11:53:00
7:53 AM,53.1,51.1,93,30.09,10.0,Calm,Calm,-,N/A,,Clear,0,2012-10-21 12:53:00
8:53 AM,63.0,57.0,81,30.12,10.0,Calm,Calm,-,N/A,,Clear,0,2012-10-21 13:53:00
9:53 AM,71.1,57.0,61,30.12,10.0,ENE,4.6,-,N/A,,Clear,70,2012-10-21 14:53:00
10:53 AM,75.0,54.0,48,30.12,10.0,East,6.9,-,N/A,,Clear,80,2012-10-21 15:53:00
11:53 AM,79.0,52.0,39,30.12,10.0,ENE,5.8,-,N/A,,Clear,70,2012-10-21 16:53:00
12:53 PM,81.0,48.0,31,30.10,10.0,ENE,9.2,-,N/A,,Clear,70,2012-10-21 17:53:00
1:53 PM,82.0,46.9,29,30.08,10.0,Calm,Calm,-,N/A,,Clear,0,2012-10-21 18:53:00
2:53 PM,82.9,46.9,28,30.06,10.0,Variable,4.6,-,N/A,,Clear,0,2012-10-21 19:53:00
3:53 PM,82.0,45.0,27,30.06,10.0,ENE,5.8,-,N/A,,Clear,60,2012-10-21 20:53:00
4:53 PM,78.1,53.1,42,30.06,10.0,South,4.6,-,N/A,,Clear,180,2012-10-21 21:53:00
5:53 PM,70.0,57.0,63,30.07,10.0,Calm,Calm,-,N/A,,Clear,0,2012-10-21 22:53:00
6:53 PM,61.0,57.0,87,30.08,10.0,Calm,Calm,-,N/A,,Clear,0,2012-10-21 23:53:00
7:53 PM,60.1,55.9,86,30.09,10.0,Calm,Calm,-,N/A,,Clear,0,2012-10-22 00:53:00
8:53 PM,57.0,55.0,93,30.10,10.0,Calm,Calm,-,N/A,,Clear,0,2012-10-22 01:53:00
9:49 PM,55.4,53.6,94,30.09,1.8,Calm,Calm,-,N/A,,Clear,0,2012-10-22 02:49:00
9:53 PM,55.9,54.0,93,30.10,2.0,Calm,Calm,-,N/A,,Clear,0,2012-10-22 02:53:00
10:02 PM,55.4,53.6,94,30.10,8.0,Calm,Calm,-,N/A,,Clear,0,2012-10-22 03:02:00
10:53 PM,54.0,52.0,93,30.11,7.0,Calm,Calm,-,N/A,,Clear,0,2012-10-22 03:53:00
11:53 PM,52.0,51.1,97,30.10,9.0,Calm,Calm,-,N/A,,Clear,0,2012-10-22 04:53:00